Regional Weather Roundup
Issued by NWS

Home | Current Version | Previous Version | Text Only | Print | Product List | Glossary Off
Versions: 1 2 3 4 5 6 7 8 9 10 11 12 13 14 15 16 17 18 19 20 21 22 23 24 25 26 27 28 29 30 31 32 33 34 35 36 37 38 39 40 41 42

000
ASUS43 KMKX 231300
RWRWI

WISCONSIN REGIONAL WEATHER ROUNDUP
NATIONAL WEATHER SERVICE MILWAUKEE/SULLIVAN WI
800 AM CDT TUE AUG 23 2016

NOTE: "FAIR" INDICATES FEW OR NO CLOUDS BELOW 12,000 FEET WITH NO
SIGNIFICANT WEATHER AND/OR OBSTRUCTIONS TO VISIBILITY.

WIZ001-002-006>008-014>016-023>028-231400-
NORTHWEST WISCONSIN

CITY           SKY/WX    TMP DP  RH WIND       PRES   REMARKS
SUPERIOR ARPT  SUNNY     69  62  77 SW8       29.90S
ASHLAND        SUNNY     69  61  75 S12       29.95S
HAYWARD        SUNNY     68  60  75 S12       29.99S
SIREN          SUNNY     68  59  73 S14       29.95S
CUMBERLAND     SUNNY     63  59  88 S7        30.00S
RICE LAKE      SUNNY     65  59  80 SE5       30.02S
CHETEK         NOT AVBL
LADYSMITH      SUNNY     64  60  89 S7        30.05S
EAU CLAIRE     NOT AVBL
MENOMONIE      MOSUNNY   65  61  85 E5        30.02S
NEW RICHMOND   MOSUNNY   66  58  75 S12       29.98F
OSCEOLA        MOSUNNY   67  60  78 S6        29.99S
$$

WIZ003>005-009-010-017-018-231400-
NORTH CENTRAL WISCONSIN

CITY           SKY/WX    TMP DP  RH WIND       PRES   REMARKS
MANITOWISH WTR NOT AVBL
ARBOR VITAE    SUNNY     63  60  90 S9        30.06S
WOODRUFF       SUNNY     63  60  90 S9        30.06S
RHINELANDER    SUNNY     65  62  90 S12       30.09S
EAGLE RIVER    SUNNY     63  61  93 SW8       30.07S
LAND O LAKES   SUNNY     63  60  91 S5        30.07S
PHILLIPS       CLOUDY    63  60  90 S7        30.05S
TOMAHAWK       SUNNY     59  58  97 CALM      30.09R
MEDFORD        SUNNY     62  62 100 S8        30.08S
MERRILL        SUNNY     65  61  86 S6        30.09S
$$

WIZ029-030-035-036-043>047-231400-
CENTRAL WISCONSIN

CITY           SKY/WX    TMP DP  RH WIND       PRES   REMARKS
WAUSAU         SUNNY     65  60  84 SW3       30.09R
MOSINEE        SUNNY     64  63  94 S10       30.11S
MARSHFIELD     SUNNY     63  59  87 S9        30.09R
STEVENS POINT  SUNNY     62  58  84 S8        30.11S
WAUPACA        SUNNY     63  62  97 S3        30.12S
WAUTOMA        SUNNY     64  60  87 S5        30.13R
WISC RAPIDS    SUNNY     66  61  84 S6        30.12R
CAMP DOUGLAS   NOT AVBL
$$

WIZ011>013-019>022-031-037>040-048>050-231400-
NORTHEAST WISCONSIN

CITY           SKY/WX    TMP DP  RH WIND       PRES   REMARKS
ANTIGO         SUNNY     60  59  96 S3        30.11R
SHAWANO        SUNNY     64  59  82 S3        30.11S
OCONTO         NOT AVBL
STURGEON BAY   SUNNY     68  58  70 S14       30.13
GREEN BAY      SUNNY     65  62  90 S8        30.13R
MANITOWOC      NOT AVBL
APPLETON       MOSUNNY   64  55  72 S7        30.12R
CLINTONVILLE   SUNNY     63  59  88 S6        30.11S
OSHKOSH        SUNNY     65  59  81 S8        30.14R
$$

WIZ032>034-041-042-053>061-231400-
SOUTHWEST WISCONSIN

CITY           SKY/WX    TMP DP  RH WIND       PRES   REMARKS
LA CROSSE      MOSUNNY   70  67  90 S14       30.06R
SPARTA         MOSUNNY   66  60  80 SW5       30.09R
VIROQUA        MOSUNNY   64  59  84 S7        30.11R
BOSCOBEL       SUNNY     68  60  75 CALM      30.11S
PRAIRIE DU CHI MOSUNNY   64  58  82 E6        30.10R
PLATTEVILLE    SUNNY     63  61  94 S8        30.14R
$$

WIZ056-057-062-063-064-067-068-231400-
SOUTH CENTRAL WISCONSIN

CITY           SKY/WX    TMP DP  RH WIND       PRES   REMARKS
REEDSBURG      NOT AVBL
BARABOO/DELLS  SUNNY     65  56  74 S9        30.12S
LONE ROCK      NOT AVBL
MINERAL POINT  SUNNY     63  61  94 SE8       30.14R
MADISON        MOSUNNY   65  58  78 S9        30.15R
MIDDLETON      SUNNY     65  58  78 S3        30.15R
WATERTOWN      SUNNY     62  59  90 S6        30.16R
MONROE         SUNNY     63  59  88 S10       30.16R
JANESVILLE     MOSUNNY   64  61  88 VRB6      30.16R
$$

WIZ051-052-058>065-066-070>072-231400-
SOUTHEAST WISCONSIN

CITY           SKY/WX    TMP DP  RH WIND       PRES   REMARKS
MILWAUKEE      MOSUNNY   68  59  73 SW10      30.18R
WAUKESHA       SUNNY     63  55  77 S7        30.19R
MILWAUKEE/TIMM NOT AVBL
RACINE         SUNNY     69  59  70 SW9       30.20R
BURLINGTON     SUNNY     59  57  94 CALM      30.18S
KENOSHA        SUNNY     67  60  78 S8        30.19S
FOND DU LAC    SUNNY     67  59  75 S7        30.15R
SHEBOYGAN      SUNNY     64  58  80 S7        30.16R
WEST BEND      SUNNY     63  57  82 S5        30.17S
JUNEAU         SUNNY     62  57  85 S7        30.16S
$$

LSZ147-162-231400-
LAKE SUPERIOR

STATION/POSITION TIME  TEMP    WIND        PRES    WAVE
                       AIR SEA DIR/SP/G            HT/PER
                 (UTC) (F)     (DEG/KT/KT) (MB)    (FT/S)
W MID LAKE BUOY  1150   69 66  210/ 14/ 16 1013.0R   3/ 5
DEVILS ISLAND    1200   69     170/  7/  9 1013.2R
SAXON HARBOR     1240   71     200/ 13/ 20 1013.5F
$$

LMZ867-665-643>646-231400-
LAKE MICHIGAN

STATION/POSITION TIME  TEMP    WIND        PRES    WAVE
                       AIR SEA DIR/SP/G            HT/PER
                 (UTC) (F)     (DEG/KT/KT) (MB)    (FT/S)
CHAMBERS ISLAND  1200   69     180/  4/ 12 1019.3R
S GREEN BAY BUOY 1200   68 73  180/ 17/ 19 1019.0R
N MID LAKE BUOY  1150   72 71  210/ 25/ 29 1017.4F   5/ 6
NORTHPORT PIER   1100   67     180/  5/ 12 1019.3R
SISTER BAY       1207   69     190/ 16/ 19   N/A
KEWAUNEE LAKESHO 1200   65     190/  8/ 10 1020.0R
SHEBOYGAN LAKESH 1200   63     190/ 11/ 11 1021.2R
PORT WASHINGTON  1200   64     200/  1/  2 1022.0S
ATWATER BUOY     1200   62 60  170/  6/  8   N/A
MILWAUKEE LAKESH 1210   65     190/  4/  5   N/A
S MID LAKE BUOY  1150   73 75  190/ 14/ 16 1021.7R   3/ 5
KENOSHA   LAKESH 1200   66     200/  5/  9 1021.7R
$$

TC  - TEMPERATURE IN CELSIUS
VSB - VISIBILITY IN STATUTE MILES
WCI - WIND CHILL INDEX
HX  - HEAT INDEX





USA.gov is the U.S. government's official web portal to all federal, state and local government web resources and services.